GW6928 Weather Reports


time (UTC)temp
F
wind
direction
speed
knots
gust
knots
rain 1hr
in
rain 24hr
in
rain mn
in
humidity
%
barometer
mb
20260505071500 44 115 4.3 5.2 0.00 0.00 0.00 94 1008.2
20260505071000 44 132 5.2 5.2 0.00 0.00 0.00 94 1008.2
20260505070500 44 129 5.2 5.2 0.00 0.00 0.00 94 1008.3
20260505070000 44 117 3.5 4.3 0.00 0.00 0.00 94 1008.1
20260505065500 44 116 3.5 4.3 0.00 0.00 0.00 94 1008.3
20260505065000 44 117 3.5 5.2 0.00 0.00 0.00 94 1008.3
20260505064500 44 123 5.2 6.1 0.00 0.00 0.00 94 1007.8
20260505064000 44 118 3.5 4.3 0.00 0.00 0.00 93 1008.0
20260505063515 44 78 3.5 4.3 0.00 0.00 0.00 93 1008.1
20260505063000 44 89 3.5 5.2 0.00 0.00 0.00 93 1008.0
20260505062500 44 79 5.2 6.1 0.00 0.00 0.00 92 1007.9
20260505062000 44 88 5.2 6.1 0.00 0.00 0.00 93 1007.9
20260505061500 44 80 6.1 7.8 0.00 0.00 0.00 92 1007.9
20260505061000 44 84 6.1 9.6 0.00 0.00 0.00 91 1007.8
20260505060500 44 88 5.2 6.1 0.00 0.00 0.00 92 1008.1
20260505060000 44 111 4.3 6.1 0.00 0.00 0.07 93 1007.8
20260505055500 44 117 5.2 7.8 0.00 0.00 0.07 93 1008.1
20260505055000 44 107 3.5 5.2 0.00 0.00 0.07 93 1008.4
20260505054500 44 96 3.5 4.3 0.00 0.00 0.07 93 1007.7
20260505054015 45 92 2.6 3.5 0.00 0.00 0.07 93 1007.8
20260505053500 45 95 2.6 3.5 0.00 0.00 0.06 92 1007.9
20260505053001 45 47 2.6 3.5 0.00 0.00 0.06 93 1008.3
20260505052501 45 21 4.3 4.3 0.00 0.00 0.06 93 1007.9
20260505052000 45 12 5.2 6.1 0.00 0.00 0.05 93 1008.3
20260505051500 45 11 3.5 5.2 0.00 0.00 0.05 92 1008.1
20260505051016 45 355 4.3 6.1 0.00 0.00 0.05 92 1008.1
20260505050501 45 347 4.3 6.1 0.00 0.00 0.05 92 1008.1
20260505041515 48 300 9.6 11.3 0.00 0.00 0.00 73 1006.5
20260505041016 49 284 5.2 8.7 0.00 0.00 0.00 67 1005.9
20260505040500 49 319 5.2 7.0 0.00 0.00 0.00 63 1005.4
20260505040000 49 312 0.9 4.3 0.00 0.00 0.00 63 1005.5
20260505035500 49 352 1.7 2.6 0.00 0.00 0.00 64 1005.4
20260505035000 49 344 0.0 1.7 0.00 0.00 0.00 63 1005.1
20260505034500 49 40 1.7 2.6 0.00 0.00 0.00 63 1005.1
20260505034001 49 55 1.7 2.6 0.00 0.00 0.00 63 1005.3
20260505033500 50 42 3.5 6.1 0.00 0.00 0.00 62 1005.0
20260505033000 50 44 2.6 6.1 0.00 0.00 0.00 61 1004.8
20260505032500 50 37 3.5 7.0 0.00 0.00 0.00 60 1004.7
20260505032000 50 39 4.3 8.7 0.00 0.00 0.00 60 1004.7
20260505031500 50 40 7.0 8.7 0.00 0.00 0.00 59 1004.8
20260505031002 50 48 5.2 9.6 0.00 0.00 0.00 58 1004.4
20260505030517 50 76 3.5 5.2 0.00 0.00 0.00 58 1004.3
20260505030015 50 92 4.3 4.3 0.00 0.00 0.00 59 1004.4
20260505025500 50 80 3.5 5.2 0.00 0.00 0.00 59 1004.4
20260505025002 50 77 3.5 6.1 0.00 0.00 0.00 59 1004.2
20260505024500 50 49 5.2 6.1 0.00 0.00 0.00 59 1004.2
20260505024000 50 41 3.5 6.1 0.00 0.00 0.00 59 1004.1
20260505023500 50 38 4.3 7.0 0.00 0.00 0.00 59 1004.1
20260505023002 50 26 2.6 2.6 0.00 0.00 0.00 60 1004.1
20260505022500 50 34 2.6 4.3 0.00 0.00 0.00 59 1004.0
20260505022000 50 44 5.2 8.7 0.00 0.00 0.00 59 1003.9
20260505021500 50 44 4.3 9.6 0.00 0.00 0.00 59 1003.9
20260505021000 50 34 6.1 10.4 0.00 0.00 0.00 59 1003.9
20260505020515 50 32 8.7 10.4 0.00 0.00 0.00 58 1004.2
20260505020000 50 31 12.2 13.0 0.00 0.00 0.00 58 1003.7
20260505015500 51 44 7.0 13.0 0.00 0.00 0.00 56 1003.4
20260505015002 52 19 10.4 15.6 0.00 0.00 0.00 54 1002.8
20260505014500 52 13 6.1 11.3 0.00 0.00 0.00 52 1002.5
20260505014000 53 3 7.8 11.3 0.00 0.00 0.00 51 1002.2
20260505013502 53 63 9.6 14.8 0.00 0.00 0.00 51 1002.5
20260505013000 52 52 9.6 14.8 0.00 0.00 0.00 52 1002.6
20260505012500 53 68 7.8 13.0 0.00 0.00 0.00 53 1002.5
20260505012015 53 28 10.4 14.8 0.00 0.00 0.00 49 1002.1
20260505011500 54 67 6.1 14.8 0.00 0.00 0.00 47 1001.8
20260505011000 54 15 13.9 19.1 0.00 0.00 0.00 45 1001.2
20260505010515 55 24 12.2 18.2 0.00 0.00 0.00 43 1001.2
20260505010000 55 353 14.8 22.6 0.00 0.00 0.00 43 1000.6
20260505005500 56 354 13.0 22.6 0.00 0.00 0.00 42 1000.3
20260505005015 56 352 16.5 19.1 0.00 0.00 0.00 39 999.9
20260505004500 57 19 13.0 16.5 0.00 0.00 0.00 37 999.6
20260505004015 57 31 8.7 15.6 0.00 0.00 0.00 36 999.3
20260505003515 57 21 11.3 14.8 0.00 0.00 0.00 36 999.1
20260505003015 57 50 9.6 14.8 0.00 0.00 0.00 35 999.8
20260505002500 58 16 14.8 18.2 0.00 0.00 0.00 35 999.2
20260505002000 58 29 9.6 16.5 0.00 0.00 0.00 36 998.9
20260505001502 58 29 10.4 14.8 0.00 0.00 0.00 35 999.0
20260505001000 58 12 11.3 15.6 0.00 0.00 0.00 35 998.7
20260505000500 58 40 8.7 13.9 0.00 0.00 0.00 34 998.6
20260505000000 58 37 8.7 9.6 0.00 0.00 0.00 34 999.0
20260504235500 58 356 9.6 12.2 0.00 0.00 0.00 34 998.9
20260504235000 58 340 16.5 20.9 0.00 0.00 0.00 33 998.6
20260504234500 58 344 8.7 18.2 0.00 0.00 0.00 33 998.6
20260504234000 59 3 11.3 14.8 0.00 0.00 0.00 34 998.6
20260504233500 59 15 16.5 22.6 0.00 0.00 0.00 33 998.4
20260504233000 59 12 12.2 20.0 0.00 0.00 0.00 32 998.0
20260504232500 59 8 9.6 21.7 0.00 0.00 0.00 31 998.4
20260504232000 59 2 8.7 16.5 0.00 0.00 0.00 34 997.9
20260504231500 59 23 15.6 20.9 0.00 0.00 0.00 31 998.1
20260504231000 58 24 14.8 27.8 0.00 0.00 0.00 34 997.9
20260504230515 59 23 18.2 26.9 0.00 0.00 0.00 34 997.8
20260504230002 59 22 14.8 26.1 0.00 0.00 0.00 33 997.7
20260504225517 59 11 15.6 22.6 0.00 0.00 0.00 34 997.4
20260504225000 59 29 15.6 26.9 0.00 0.00 0.00 33 997.7
20260504224500 60 0 17.4 24.3 0.00 0.00 0.00 32 997.2
20260504224000 60 18 20.0 29.5 0.00 0.00 0.00 31 996.8
20260504223500 62 20 16.5 20.0 0.00 0.00 0.00 28 996.0
20260504223000 64 57 10.4 14.8 0.00 0.00 0.00 23 995.3
20260504222502 64 55 6.1 18.2 0.00 0.00 0.00 23 995.2
20260504222001 63 22 8.7 15.6 0.00 0.00 0.00 24 995.2
20260504221500 63 38 13.9 19.1 0.00 0.00 0.00 24 995.9
20260504221000 63 21 4.3 10.4 0.00 0.00 0.00 24 995.3
20260504220500 63 357 7.8 14.8 0.00 0.00 0.00 25 995.1
20260504220000 63 31 7.8 17.4 0.00 0.00 0.00 25 995.6
20260504215500 63 44 10.4 13.9 0.00 0.00 0.00 24 994.9
20260504215000 63 1 14.8 21.7 0.00 0.00 0.00 25 995.2
20260504214501 63 16 9.6 20.9 0.00 0.00 0.00 25 995.2
20260504214000 64 13 14.8 21.7 0.00 0.00 0.00 24 994.6
20260504213500 64 66 7.8 16.5 0.00 0.00 0.00 22 994.7
20260504213000 65 25 9.6 16.5 0.00 0.00 0.00 21 994.5
20260504212515 65 43 11.3 15.6 0.00 0.00 0.00 22 994.2
20260504212001 65 39 8.7 14.8 0.00 0.00 0.00 22 994.3
20260504211515 66 359 6.1 13.0 0.00 0.00 0.00 22 994.1
20260504211000 65 345 6.1 13.9 0.00 0.00 0.00 22 994.5
20260504210500 66 45 2.6 11.3 0.00 0.00 0.00 21 994.3
20260504210000 66 59 3.5 13.9 0.00 0.00 0.00 22 994.1
20260504205500 65 341 3.5 11.3 0.00 0.00 0.00 22 994.6
20260504205017 65 5 6.1 9.6 0.00 0.00 0.00 22 994.6
20260504204501 66 6 6.1 10.4 0.00 0.00 0.00 22 994.6
20260504204000 66 89 2.6 13.0 0.00 0.00 0.00 22 994.7
20260504203500 66 58 5.2 11.3 0.00 0.00 0.00 23 994.7
20260504203000 65 55 11.3 12.2 0.00 0.00 0.00 23 994.9
20260504202500 64 19 5.2 12.2 0.00 0.00 0.00 24 995.5
20260504202000 64 53 11.3 16.5 0.00 0.00 0.00 24 995.7
20260504201501 64 53 14.8 20.0 0.00 0.00 0.00 25 995.7
20260504201000 64 115 4.3 13.0 0.00 0.00 0.00 26 995.9
20260504200502 64 60 20.0 21.7 0.00 0.00 0.00 25 995.7
20260504200001 64 82 7.0 20.9 0.00 0.00 0.00 25 995.8
20260504195502 64 25 3.5 26.9 0.00 0.00 0.00 24 995.5
20260504195000 63 17 16.5 26.9 0.00 0.00 0.00 26 996.0
20260504194500 65 38 5.2 25.2 0.00 0.00 0.00 24 995.3
20260504194015 63 320 20.0 29.5 0.00 0.00 0.00 26 996.0
20260504193500 64 340 15.6 23.5 0.00 0.00 0.00 27 995.6
20260504193000 64 336 17.4 23.5 0.00 0.00 0.00 23 995.5
20260504192500 63 8 12.2 20.9 0.00 0.00 0.00 23 995.8
20260504192000 64 355 17.4 18.2 0.00 0.00 0.00 23 995.4
20260504191500 64 336 4.3 8.7 0.00 0.00 0.00 23 995.4
20260504191000 64 11 0.9 6.1 0.00 0.00 0.00 22 995.2
20260504190500 64 337 7.8 12.2 0.00 0.00 0.00 21 995.3
20260504190000 65 31 8.7 13.9 0.00 0.00 0.00 21 995.1
20260504185502 65 36 7.0 9.6 0.00 0.00 0.00 21 994.7
20260504185015 65 81 3.5 9.6 0.00 0.00 0.00 21 994.6
20260504184502 68 354 8.7 13.9 0.00 0.00 0.00 19 993.6
20260504184000 66 116 1.7 7.0 0.00 0.00 0.00 20 994.5
20260504183515 66 163 3.5 7.0 0.00 0.00 0.00 21 994.6
20260504183002 65 286 6.1 11.3 0.00 0.00 0.00 22 995.3
20260504182515 65 300 8.7 15.6 0.00 0.00 0.00 21 995.3
20260504182001 66 308 6.1 11.3 0.00 0.00 0.00 21 994.6
20260504181500 65 299 5.2 7.0 0.00 0.00 0.00 22 995.4
20260504181002 66 4 7.0 10.4 0.00 0.00 0.00 21 994.7
20260504180500 66 134 7.8 13.9 0.00 0.00 0.00 20 995.1
20260504180000 65 267 1.7 3.5 0.00 0.00 0.00 21 995.5
20260504175500 66 268 3.5 11.3 0.00 0.00 0.00 21 995.4
20260504175000 66 294 6.1 16.5 0.00 0.00 0.00 20 995.3
20260504174516 66 254 7.8 16.5 0.00 0.00 0.00 22 995.5
20260504174000 67 345 8.7 13.9 0.00 0.00 0.00 21 994.8
20260504173500 65 197 3.5 7.8 0.00 0.00 0.00 21 995.8
20260504173000 65 139 2.6 7.8 0.00 0.00 0.00 22 995.9
20260504172515 66 288 9.6 17.4 0.00 0.00 0.00 22 995.7
20260504172000 64 342 7.0 10.4 0.00 0.00 0.00 22 996.3
20260504171500 64 325 5.2 15.6 0.00 0.00 0.00 22 996.9
20260504171001 64 300 10.4 20.0 0.00 0.00 0.00 22 996.6
20260504170517 66 304 6.1 20.0 0.00 0.00 0.00 22 995.8
20260504151003 61 283 13.9 18.2 0.00 0.00 0.00 25 998.5
20260504150500 61 287 17.4 20.0 0.00 0.00 0.00 25 998.6
20260504141000 58 177 2.6 6.1 0.00 0.00 0.00 31 999.8
20260504140500 56 173 2.6 5.2 0.00 0.00 0.00 34 1001.1
20260504130515 49 164 7.8 10.4 0.00 0.00 0.00 42 1004.3
20260504110515 47 125 7.0 8.7 0.00 0.00 0.00 41 1004.8
20260504100500 46 121 6.1 7.8 0.00 0.00 0.00 44 1005.4
20260504082000 44 155 0.9 3.5 0.00 0.00 0.00 58 1007.8
20260504081500 44 237 4.3 5.2 0.00 0.00 0.00 57 1007.8
20260504081015 47 331 9.6 11.3 0.00 0.00 0.00 49 1006.0
20260504080501 47 139 4.3 6.1 0.00 0.00 0.00 46 1005.7